This is the latest recevied weather packets stored in our database for station/object KQ7A. If no packets are shown the sender has not sent any weather packets the latest 10 day(s).
| Time | Temp. | Humidity | Pressure | Rain* | Wind** | Luminosity | Snow |
|---|---|---|---|---|---|---|---|
| 1777556718 | 2.78° C | 77% | 1020 hPa | 0 mm | - | 24 W/m² | - |
| 1777556415 | 3.33° C | 73% | 1020.1 hPa | 0 mm | - | 22 W/m² | - |
| 1777556115 | 3.33° C | 69% | 1020.1 hPa | 0 mm | - | 19 W/m² | - |
| 1777555811 | 2.78° C | 71% | 1020.1 hPa | 0 mm | - | 16 W/m² | - |
| 1777555506 | 2.78° C | 70% | 1019.4 hPa | 0 mm | - | 14 W/m² | - |
| 1777555202 | 2.78° C | 70% | 1019.9 hPa | 0 mm | - | 11 W/m² | - |
| 1777554900 | 2.78° C | 70% | 1020 hPa | 0 mm | - | 8 W/m² | - |
| 1777554596 | 2.22° C | 70% | 1019.8 hPa | 0 mm | - | 5 W/m² | - |
| 1777554293 | 2.22° C | 72% | 1019.9 hPa | 0 mm | - | 3 W/m² | - |
| 1777553985 | 1.67° C | 74% | 1019.9 hPa | 0 mm | - | 1 W/m² | - |
| 1777553681 | 1.67° C | 76% | 1019.7 hPa | 0 mm | - | 0 W/m² | - |
| 1777553378 | 2.22° C | 73% | 1019.7 hPa | 0 mm | - | 0 W/m² | - |
| 1777553074 | 2.78° C | 71% | 1019.9 hPa | 0 mm | - | 0 W/m² | - |
| 1777552769 | 2.22° C | 72% | 1019.7 hPa | 0 mm | - | 0 W/m² | - |
| 1777552465 | 1.67° C | 72% | 1019.8 hPa | 0 mm | - | 0 W/m² | - |
| 1777552161 | 1.67° C | 73% | 1019.9 hPa | 0 mm | - | 0 W/m² | - |
| 1777551859 | 2.78° C | 74% | 1020 hPa | 0 mm | - | 0 W/m² | - |
| 1777551556 | 2.78° C | 67% | 1019.8 hPa | 0 mm | - | 0 W/m² | - |
| 1777551253 | 3.33° C | 70% | 1019.6 hPa | 0 mm | - | 0 W/m² | - |
| 1777550950 | 2.78° C | 68% | 1019.8 hPa | 0 mm | - | 0 W/m² | - |
| 1777550647 | 2.78° C | 71% | 1019.8 hPa | 0 mm | - | 0 W/m² | - |
| 1777550343 | 3.33° C | 67% | 1019.8 hPa | 0 mm | - | 0 W/m² | - |
| 1777550039 | 2.78° C | 69% | 1019.8 hPa | 0 mm | - | 0 W/m² | - |
| 1777549736 | 3.33° C | 70% | 1019.9 hPa | 0 mm | - | 0 W/m² | - |
| 1777549436 | 3.33° C | 66% | 1019.8 hPa | 0 mm | - | 0 W/m² | - |
* Rain latest hour (hover to see other rain measurements)
** Current wind speed in m/s (hover to see current wind gust speed)